period_start,C,m1,H,J0,J1,J2,J3,J4,J5,JA,JB,JC,JD,JJ,JK,JN,#
2014-01-13 00:00:38,0.20,3.13,0.00,23.07,24.57,27.39,5.97,30.25,1027.38,2048.97,2450.04,2526.22,2741.08,350.24,327.55,19.22,0000 0000 0000 0000 000000
2014-01-13 00:01:38,0.14,3.13,0.00,23.09,24.57,27.37,6.14,30.33,1027.37,2048.98,2449.88,2526.08,2741.01,350.88,328.37,19.23,0000 0000 0000 0000 000000
2014-01-13 00:02:38,0.12,3.13,0.00,23.08,24.58,27.34,5.97,30.42,1027.36,2048.97,2449.44,2526.02,2740.76,349.71,327.03,19.23,0000 0000 0000 0000 000000
2014-01-13 00:03:39,0.16,3.13,0.00,23.06,24.58,27.34,6.15,30.38,1027.37,2048.99,2449.16,2525.95,2740.32,351.27,328.57,19.24,0000 0000 0000 0000 000000
2014-01-13 00:04:39,0.15,3.13,0.00,23.07,24.59,27.36,5.95,30.33,1027.38,2048.95,2449.05,2525.62,2740.11,350.38,327.94,19.24,0000 0000 0000 0000 000000
2014-01-13 00:05:39,0.17,3.13,0.00,23.07,24.59,27.37,6.10,30.29,1027.37,2048.96,2448.87,2525.24,2740.04,350.10,327.41,19.25,0000 0000 0000 0000 000000
2014-01-13 00:06:39,0.17,3.13,0.00,23.08,24.59,27.38,5.79,30.17,1027.37,2048.98,2448.38,2525.10,2740.01,349.09,326.76,19.26,0000 0000 0000 0000 000000
2014-01-13 00:07:40,0.15,3.13,0.00,23.08,24.59,27.38,6.07,30.38,1027.37,2048.98,2448.14,2525.03,2739.81,349.82,326.79,19.26,0000 0000 0000 0000 000000
2014-01-13 00:08:40,0.12,3.13,0.00,23.10,24.59,27.39,5.88,29.96,1027.37,2048.98,2448.05,2525.00,2739.40,350.22,327.16,19.27,0000 0000 0000 0000 000000
2014-01-13 00:09:40,0.09,3.13,0.00,23.09,24.60,27.43,6.14,30.29,1027.36,2048.97,2447.95,2524.86,2739.15,350.39,327.65,19.27,0000 0000 0000 0000 000000
2014-01-13 00:10:40,0.13,3.13,0.00,23.07,24.60,27.42,5.94,30.21,1027.37,2048.97,2447.54,2524.41,2739.05,349.96,327.28,19.28,0000 0000 0000 0000 000000
2014-01-13 00:11:41,0.23,3.14,0.00,23.08,24.60,27.41,5.98,30.42,1027.38,2048.99,2447.22,2524.16,2739.01,349.31,326.66,19.29,0000 0000 0000 0000 000000
2014-01-13 00:12:41,0.15,3.14,0.00,23.11,24.60,27.40,5.86,30.25,1027.37,2048.97,2447.08,2524.06,2738.91,349.29,326.61,19.29,0000 0000 0000 0000 000000
2014-01-13 00:13:42,0.08,3.14,0.00,23.12,24.60,27.37,5.96,30.21,1027.38,2048.97,2447.00,2524.01,2738.44,349.23,326.55,19.30,0000 0000 0000 0000 000000
2014-01-13 00:14:42,0.10,3.14,0.00,23.11,24.60,27.38,6.04,30.33,1027.36,2048.98,2446.68,2523.97,2738.17,350.80,328.01,19.30,0000 0000 0000 0000 000000
2014-01-13 00:15:42,0.15,3.14,0.00,23.09,24.60,27.37,6.04,30.38,1027.40,2048.97,2446.29,2523.84,2738.07,349.48,326.82,19.31,0000 0000 0000 0000 000000
2014-01-13 00:16:43,0.16,3.14,0.00,23.12,24.60,27.35,6.08,30.29,1027.41,2048.97,2446.11,2523.41,2738.01,350.11,327.37,19.31,0000 0000 0000 0000 000000
2014-01-13 00:17:43,0.14,3.14,0.00,23.11,24.60,27.41,5.97,30.42,1027.45,2048.95,2446.02,2523.15,2737.90,350.60,327.85,19.32,0000 0000 0000 0000 000000
2014-01-13 00:18:43,0.12,3.14,0.00,23.12,24.60,27.42,5.90,30.21,1027.42,2048.94,2445.89,2523.05,2737.54,349.74,327.04,19.33,0000 0000 0000 0000 000000
2014-01-13 00:19:43,0.12,3.14,0.00,23.12,24.60,27.42,6.15,30.50,1027.42,2048.96,2445.46,2523.01,2737.24,350.11,327.38,19.33,0000 0000 0000 0000 000000
2014-01-13 00:20:43,0.15,3.14,0.00,23.12,24.60,27.43,5.99,30.21,1027.41,2048.96,2445.19,2522.99,2737.08,349.91,327.19,19.34,0000 0000 0000 0000 000000
2014-01-13 00:21:44,0.11,3.14,0.00,23.12,24.60,27.41,6.03,30.29,1027.45,2048.96,2445.07,2522.70,2737.03,349.84,327.13,19.34,0000 0000 0000 0000 000000
2014-01-13 00:22:44,0.13,3.14,0.00,23.14,24.60,27.41,5.94,30.04,1027.58,2048.96,2444.98,2522.29,2736.96,350.32,327.38,19.35,0000 0000 0000 0000 000000
2014-01-13 00:23:44,0.15,3.14,0.00,23.14,24.60,27.43,5.98,30.21,1027.63,2048.92,2444.58,2522.10,2736.56,350.79,328.06,19.36,0000 0000 0000 0000 000000
2014-01-13 00:24:45,0.20,3.15,0.00,23.15,24.60,27.44,6.01,30.21,1027.62,2048.96,2444.23,2522.04,2736.23,350.32,327.56,19.36,0000 0000 0000 0000 000000
2014-01-13 00:25:45,0.17,3.15,0.00,23.14,24.60,27.43,6.11,30.08,1027.65,2048.97,2444.08,2522.01,2736.08,350.25,327.56,19.37,0000 0000 0000 0000 000000
2014-01-13 00:26:45,0.07,3.15,0.00,23.12,24.61,27.43,6.03,30.33,1027.56,2048.98,2444.02,2521.88,2736.03,350.54,327.82,19.37,0000 0000 0000 0000 000000
2014-01-13 00:27:45,0.08,3.15,0.00,23.14,24.61,27.44,5.89,30.13,1027.57,2048.98,2443.96,2521.55,2736.00,349.83,327.14,19.38,0000 0000 0000 0000 000000
2014-01-13 00:28:46,0.14,3.15,0.00,23.13,24.62,27.46,5.97,30.29,1027.54,2048.98,2443.59,2521.22,2735.87,349.68,327.00,19.39,0000 0000 0000 0000 000000
2014-01-13 00:29:46,0.19,3.15,0.00,23.13,24.62,27.46,6.06,30.17,1027.47,2048.96,2443.24,2521.08,2735.40,350.22,327.49,19.39,0000 0000 0000 0000 000000
2014-01-13 00:30:46,0.17,3.15,0.00,23.13,24.62,27.46,6.12,30.38,1027.46,2048.95,2443.08,2521.03,2735.15,349.79,327.08,19.40,0000 0000 0000 0000 000000
2014-01-13 00:31:46,0.09,3.15,0.00,23.15,24.62,27.42,6.15,30.46,1027.42,2048.96,2443.03,2520.97,2735.04,351.19,328.35,19.40,0000 0000 0000 0000 000000
2014-01-13 00:32:47,0.06,3.15,0.00,23.16,24.62,27.43,6.08,30.38,1027.39,2048.98,2442.88,2520.86,2734.98,349.88,327.11,19.41,0000 0000 0000 0000 000000
2014-01-13 00:33:47,0.12,3.15,0.00,23.15,24.62,27.43,5.98,30.25,1027.39,2048.98,2442.39,2520.50,2734.92,350.50,327.70,19.41,0000 0000 0000 0000 000000
2014-01-13 00:34:47,0.23,3.15,0.00,23.13,24.62,27.45,6.10,30.33,1027.37,2048.99,2442.14,2520.20,2734.54,349.96,327.27,19.42,0000 0000 0000 0000 000000
2014-01-13 00:35:47,0.20,3.16,0.00,23.14,24.62,27.45,5.99,30.25,1027.38,2048.98,2442.05,2520.07,2734.20,349.15,326.44,19.43,0000 0000 0000 0000 000000
2014-01-13 00:36:47,0.10,3.16,0.00,23.17,24.62,27.45,5.91,30.38,1027.40,2048.96,2441.93,2520.02,2734.07,349.13,326.41,19.43,0000 0000 0000 0000 000000
2014-01-13 00:37:48,0.03,3.16,0.00,23.15,24.62,27.46,6.07,30.46,1027.38,2048.95,2441.50,2520.01,2734.01,349.93,327.17,19.44,0000 0000 0000 0000 000000
2014-01-13 00:38:48,0.13,3.16,0.00,23.16,24.62,27.45,6.06,30.21,1027.38,2048.98,2441.20,2519.76,2733.87,350.53,327.71,19.44,0000 0000 0000 0000 000000
2014-01-13 00:39:48,0.23,3.16,0.00,23.17,24.62,27.40,6.05,30.38,1027.39,2048.95,2441.06,2519.34,2733.46,349.86,327.11,19.45,0000 0000 0000 0000 000000
2014-01-13 00:40:48,0.18,3.16,0.00,23.18,24.62,27.42,6.04,29.92,1027.38,2048.91,2440.98,2519.12,2733.19,350.79,328.02,19.46,0000 0000 0000 0000 000000
2014-01-13 00:41:49,0.10,3.16,0.00,23.18,24.62,27.42,5.92,30.00,1027.40,2048.93,2440.85,2519.04,2733.07,350.87,328.03,19.46,0000 0000 0000 0000 000000
2014-01-13 00:42:49,0.10,3.16,0.00,23.18,24.63,27.44,5.99,30.42,1027.44,2048.96,2440.42,2519.01,2733.02,350.01,327.54,19.47,0000 0000 0000 0000 000000
2014-01-13 00:43:49,0.13,3.16,0.00,23.18,24.63,27.46,6.01,30.33,1027.42,2048.95,2440.15,2518.94,2732.98,350.02,327.23,19.47,0000 0000 0000 0000 000000
2014-01-13 00:44:49,0.06,3.16,0.00,23.17,24.64,27.47,6.06,30.33,1027.42,2048.93,2440.04,2518.63,2732.64,349.93,326.89,19.48,0000 0000 0000 0000 000000
2014-01-13 00:45:49,0.19,3.16,0.00,23.18,24.64,27.47,6.01,30.38,1027.45,2048.91,2439.96,2518.26,2732.26,349.68,326.81,19.48,0000 0000 0000 0000 000000
2014-01-13 00:46:50,0.17,3.16,0.00,23.16,24.64,27.44,6.01,30.13,1027.47,2048.92,2439.54,2518.11,2732.10,349.66,326.21,19.49,0000 0000 0000 0000 000000
2014-01-13 00:47:50,0.18,3.16,0.00,23.17,24.65,27.45,6.18,30.33,1027.49,2048.91,2439.21,2518.03,2732.03,351.04,328.22,19.50,0000 0000 0000 0000 000000
2014-01-13 00:48:50,0.08,3.17,0.00,23.19,24.65,27.44,5.99,30.33,1027.55,2048.85,2439.08,2517.97,2731.95,349.42,326.70,19.50,0000 0000 0000 0000 000000
2014-01-13 00:49:51,-0.05,3.16,0.00,23.19,24.65,27.45,5.93,30.04,1027.60,2048.82,2439.00,2517.86,2731.67,349.80,327.07,19.51,0000 0000 0000 0000 000000
2014-01-13 00:50:51,0.16,3.17,0.00,23.20,24.65,27.46,6.17,30.38,1027.65,2048.85,2438.68,2517.45,2731.26,350.36,327.60,19.51,0000 0000 0000 0000 000000
2014-01-13 00:51:51,0.33,3.17,0.00,23.20,24.65,27.47,6.00,30.25,1027.68,2048.89,2438.27,2517.18,2731.10,350.46,327.70,19.52,0000 0000 0000 0000 000000
2014-01-13 00:52:51,0.22,3.17,0.00,23.19,24.65,27.45,6.04,30.25,1027.71,2048.91,2438.10,2517.06,2731.04,350.64,327.89,19.53,0000 0000 0000 0000 000000
2014-01-13 00:53:51,0.09,3.17,0.00,23.19,24.65,27.44,6.01,30.08,1027.77,2048.90,2438.03,2517.02,2731.00,350.11,327.41,19.53,0000 0000 0000 0000 000000
2014-01-13 00:54:52,-0.01,3.17,0.00,23.19,24.65,27.47,6.05,30.21,1027.79,2048.86,2437.95,2517.00,2730.86,350.46,327.42,19.54,0000 0000 0000 0000 000000
2014-01-13 00:55:52,0.06,3.17,0.00,23.18,24.65,27.47,6.09,30.21,1027.79,2048.80,2437.55,2516.87,2730.43,350.50,327.79,19.54,0000 0000 0000 0000 000000
2014-01-13 00:56:52,0.17,3.17,0.00,23.21,24.65,27.46,5.99,30.17,1027.80,2048.68,2437.20,2516.45,2730.17,349.72,327.04,19.55,0000 0000 0000 0000 000000
2014-01-13 00:57:52,0.15,3.17,0.00,23.22,24.65,27.45,6.05,30.08,1027.83,2048.73,2437.07,2516.20,2730.06,350.22,327.41,19.56,0000 0000 0000 0000 000000
2014-01-13 00:58:52,0.19,3.17,0.00,23.20,24.66,27.49,5.94,30.21,1027.83,2048.81,2437.02,2516.07,2730.01,350.11,327.41,19.56,0000 0000 0000 0000 000000
2014-01-13 00:59:53,0.09,3.17,0.00,23.22,24.66,27.50,5.99,30.29,1027.83,2048.67,2436.82,2516.02,2729.81,349.92,327.33,19.57,0000 0000 0000 0000 000000
2014-01-13 01:00:53,-0.01,3.17,0.00,23.22,24.66,27.49,6.23,30.38,1027.81,2048.48,2436.39,2515.98,2729.36,350.94,328.18,19.57,0000 0000 0000 0000 000000
2014-01-13 01:01:53,0.02,3.17,0.00,23.20,24.67,27.50,5.83,30.33,1027.80,2048.40,2436.14,2515.76,2729.13,348.44,325.86,19.58,0000 0000 0000 0000 000000
2014-01-13 01:02:53,0.08,3.17,0.00,23.21,24.67,27.48,5.98,30.46,1027.79,2048.32,2436.05,2515.34,2729.05,349.89,327.11,19.58,0000 0000 0000 0000 000000
2014-01-13 01:03:54,0.11,3.17,0.00,23.20,24.67,27.48,6.10,30.29,1027.80,2048.25,2435.90,2515.13,2728.99,350.44,327.72,19.59,0000 0000 0000 0000 000000
2014-01-13 01:04:54,0.03,3.17,0.00,23.18,24.67,27.47,6.03,30.21,1027.68,2048.17,2435.50,2515.04,2728.77,350.24,327.25,19.60,0000 0000 0000 0000 000000
2014-01-13 01:05:54,0.12,3.18,0.00,23.19,24.67,27.47,5.84,30.08,1027.62,2048.13,2435.19,2514.99,2728.33,349.81,326.95,19.60,0000 0000 0000 0000 000000
2014-01-13 01:06:54,0.11,3.18,0.00,23.18,24.67,27.47,6.06,30.29,1027.66,2048.10,2435.06,2514.75,2728.12,350.06,327.57,19.61,0000 0000 0000 0000 000000
2014-01-13 01:07:55,0.11,3.18,0.00,23.20,24.67,27.49,6.01,30.08,1027.69,2048.06,2434.93,2514.34,2728.04,349.47,326.63,19.61,0000 0000 0000 0000 000000
2014-01-13 01:08:55,0.13,3.18,0.00,23.22,24.67,27.50,5.94,30.04,1027.66,2048.06,2434.48,2514.11,2727.91,350.67,327.87,19.62,0000 0000 0000 0000 000000
2014-01-13 01:09:55,0.16,3.18,0.00,23.24,24.67,27.52,6.08,30.13,1027.65,2048.05,2434.18,2514.04,2727.54,349.99,327.20,19.63,0000 0000 0000 0000 000000
2014-01-13 01:10:56,0.16,3.18,0.00,23.25,24.67,27.50,6.07,30.25,1027.65,2048.06,2434.06,2514.00,2727.24,350.18,327.37,19.63,0000 0000 0000 0000 000000
2014-01-13 01:11:56,0.10,3.18,0.00,23.23,24.67,27.52,6.02,29.96,1027.66,2048.04,2434.00,2513.91,2727.08,350.30,327.50,19.64,0000 0000 0000 0000 000000
2014-01-13 01:12:56,0.04,3.18,0.00,23.23,24.68,27.54,5.92,29.96,1027.75,2048.05,2433.68,2513.57,2727.01,349.52,326.80,19.64,0000 0000 0000 0000 000000
2014-01-13 01:13:57,0.28,3.18,0.00,23.23,24.68,27.56,5.90,30.00,1027.77,2048.06,2433.28,2513.22,2726.95,349.56,326.85,19.65,0000 0000 0000 0000 000000
2014-01-13 01:14:57,0.16,3.18,0.00,23.24,24.68,27.58,5.98,30.08,1027.80,2048.05,2433.10,2513.08,2726.77,350.04,327.30,19.65,0000 0000 0000 0000 000000
2014-01-13 01:15:57,0.09,3.18,0.00,23.23,24.69,27.56,5.95,30.13,1027.74,2048.05,2433.03,2513.03,2726.42,349.66,326.94,19.66,0000 0000 0000 0000 000000
2014-01-13 01:16:57,0.09,3.18,0.00,23.25,24.69,27.54,6.08,30.33,1027.73,2048.06,2432.92,2513.01,2726.18,350.76,327.95,19.67,0000 0000 0000 0000 000000
2014-01-13 01:17:57,0.09,3.18,0.00,23.25,24.69,27.53,6.12,30.29,1027.71,2048.05,2432.44,2512.92,2726.07,350.67,327.86,19.67,0000 0000 0000 0000 000000
2014-01-13 01:18:57,0.17,3.19,0.00,23.25,24.69,27.52,6.02,30.21,1027.68,2048.05,2432.17,2512.51,2726.02,349.99,327.18,19.68,0000 0000 0000 0000 000000
2014-01-13 01:19:58,0.19,3.19,0.00,23.23,24.70,27.52,6.07,30.33,1027.61,2048.03,2432.05,2512.20,2725.84,350.06,327.00,19.68,0000 0000 0000 0000 000000
2014-01-13 01:20:58,0.12,3.19,0.00,23.23,24.70,27.53,6.10,30.25,1027.58,2048.04,2432.01,2512.07,2725.38,349.95,327.33,19.69,0000 0000 0000 0000 000000
2014-01-13 01:21:58,0.13,3.19,0.00,23.25,24.70,27.53,6.02,30.13,1027.54,2048.03,2431.76,2512.03,2725.18,349.52,327.09,19.70,0000 0000 0000 0000 000000
2014-01-13 01:22:58,0.11,3.19,0.00,23.26,24.70,27.55,6.17,30.21,1027.68,2048.02,2431.34,2511.99,2725.08,349.94,327.65,19.70,0000 0000 0000 0000 000000
2014-01-13 01:23:59,0.10,3.19,0.00,23.25,24.70,27.53,6.00,30.25,1027.71,2048.03,2431.12,2511.83,2725.02,350.44,327.64,19.71,0000 0000 0000 0000 000000
2014-01-13 01:24:59,0.12,3.19,0.00,23.24,24.70,27.53,6.05,29.96,1027.74,2048.02,2431.03,2511.46,2724.89,350.46,327.68,19.71,0000 0000 0000 0000 000000
2014-01-13 01:25:59,0.16,3.19,0.00,23.24,24.70,27.54,6.06,29.88,1027.74,2048.04,2430.97,2511.18,2724.54,350.60,328.08,19.72,0000 0000 0000 0000 000000
2014-01-13 01:26:59,0.17,3.19,0.00,23.24,24.70,27.55,6.08,30.08,1027.74,2048.03,2430.61,2511.07,2724.22,349.69,326.96,19.73,0000 0000 0000 0000 000000
2014-01-13 01:27:59,0.17,3.19,0.00,23.22,24.70,27.56,6.04,29.96,1027.74,2048.03,2430.23,2511.02,2724.08,350.04,327.37,19.73,0000 0000 0000 0000 000000
2014-01-13 01:29:00,0.13,3.19,0.00,23.23,24.70,27.53,6.02,30.08,1027.77,2048.04,2430.08,2511.00,2724.03,349.88,326.76,19.74,0000 0000 0000 0000 000000
2014-01-13 01:30:00,0.02,3.19,0.00,23.24,24.70,27.54,6.03,30.17,1027.84,2048.05,2430.00,2510.82,2723.98,350.43,327.88,19.74,0000 0000 0000 0000 000000
2014-01-13 01:31:00,0.10,3.20,0.00,23.25,24.70,27.53,5.95,30.21,1027.85,2048.02,2429.79,2510.37,2723.65,349.60,326.89,19.75,0000 0000 0000 0000 000000
2014-01-13 01:32:00,0.26,3.20,0.00,23.23,24.70,27.54,6.03,29.96,1027.80,2048.01,2429.36,2510.14,2723.29,349.55,326.86,19.75,0000 0000 0000 0000 000000
2014-01-13 01:33:01,0.21,3.20,0.00,23.25,24.70,27.53,6.08,30.17,1027.81,2048.01,2429.14,2510.05,2723.11,349.60,326.89,19.76,0000 0000 0000 0000 000000
2014-01-13 01:34:01,0.08,3.20,0.00,23.25,24.71,27.53,5.96,30.21,1027.83,2048.01,2429.05,2510.01,2723.04,349.80,327.07,19.77,0000 0000 0000 0000 000000
2014-01-13 01:35:01,0.04,3.20,0.00,23.27,24.71,27.53,5.89,29.83,1027.79,2048.01,2428.99,2509.97,2723.01,349.45,326.72,19.77,0000 0000 0000 0000 000000
2014-01-13 01:36:01,0.05,3.20,0.00,23.28,24.72,27.53,6.00,30.13,1027.80,2048.02,2428.73,2509.77,2722.94,349.63,326.88,19.78,0000 0000 0000 0000 000000
2014-01-13 01:37:02,0.16,3.20,0.00,23.25,24.72,27.53,5.92,30.08,1027.82,2048.01,2428.34,2509.36,2722.56,349.39,326.69,19.78,0000 0000 0000 0000 000000
2014-01-13 01:38:02,0.28,3.20,0.00,23.25,24.72,27.51,6.27,30.42,1027.83,2048.00,2428.12,2509.13,2722.23,351.09,328.28,19.79,0000 0000 0000 0000 000000
2014-01-13 01:39:02,0.16,3.20,0.00,23.27,24.72,27.52,5.92,30.13,1027.82,2048.01,2428.03,2509.04,2722.08,350.69,327.60,19.80,0000 0000 0000 0000 000000
2014-01-13 01:40:02,0.07,3.20,0.00,23.27,24.72,27.49,6.15,30.25,1027.83,2048.00,2427.81,2509.00,2722.03,350.71,327.68,19.80,0000 0000 0000 0000 000000
2014-01-13 01:41:03,0.07,3.20,0.00,23.25,24.72,27.51,6.04,30.00,1027.83,2048.00,2427.36,2508.86,2721.85,349.97,327.18,19.81,0000 0000 0000 0000 000000
2014-01-13 01:42:03,0.19,3.20,0.00,23.25,24.72,27.54,6.02,30.21,1027.81,2048.00,2427.13,2508.52,2721.47,350.25,327.44,19.81,0000 0000 0000 0000 000000
2014-01-13 01:43:03,0.23,3.21,0.00,23.27,24.72,27.53,5.98,30.04,1027.79,2048.00,2427.05,2508.21,2721.17,349.89,327.04,19.82,0000 0000 0000 0000 000000
2014-01-13 01:44:03,0.16,3.21,0.00,23.27,24.72,27.55,6.01,29.92,1027.79,2048.00,2426.98,2508.07,2721.06,350.67,327.85,19.82,0000 0000 0000 0000 000000
2014-01-13 01:45:03,0.07,3.21,0.00,23.28,24.72,27.52,6.02,30.00,1027.81,2048.00,2426.74,2508.03,2721.02,350.23,327.70,19.83,0000 0000 0000 0000 000000
2014-01-13 01:46:04,0.07,3.21,0.00,23.27,24.72,27.50,5.96,30.00,1027.82,2048.00,2426.33,2508.00,2720.97,349.58,327.00,19.84,0000 0000 0000 0000 000000
2014-01-13 01:47:04,0.11,3.21,0.00,23.27,24.72,27.54,5.86,29.88,1027.79,2048.00,2426.12,2507.91,2720.65,348.88,326.18,19.84,0000 0000 0000 0000 000000
2014-01-13 01:48:04,0.14,3.21,0.00,23.28,24.72,27.58,6.14,30.25,1027.80,2048.00,2426.03,2507.52,2720.27,350.76,327.80,19.85,0000 0000 0000 0000 000000
2014-01-13 01:49:05,0.22,3.21,0.00,23.26,24.72,27.57,5.91,30.04,1027.79,2048.00,2425.88,2507.21,2720.09,349.36,326.88,19.85,0000 0000 0000 0000 000000
2014-01-13 01:50:05,0.15,3.21,0.00,23.26,24.72,27.56,6.10,30.29,1027.75,2048.00,2425.42,2507.08,2720.03,350.79,327.73,19.86,0000 0000 0000 0000 000000
2014-01-13 01:51:05,0.16,3.21,0.00,23.27,24.73,27.55,5.98,30.04,1027.75,2048.00,2425.15,2507.03,2719.99,350.19,327.56,19.87,0000 0000 0000 0000 000000
2014-01-13 01:52:05,0.07,3.21,0.00,23.27,24.73,27.58,6.27,30.42,1027.76,2048.00,2425.05,2506.97,2719.79,351.29,328.42,19.87,0000 0000 0000 0000 000000
2014-01-13 01:53:05,0.06,3.21,0.00,23.27,24.74,27.58,6.03,30.29,1027.82,2048.00,2424.98,2506.83,2719.40,350.10,327.33,19.88,0000 0000 0000 0000 000000
2014-01-13 01:54:06,0.16,3.21,0.00,23.27,24.74,27.57,6.11,30.33,1027.81,2047.99,2424.63,2506.42,2719.15,350.10,327.34,19.88,0000 0000 0000 0000 000000
2014-01-13 01:55:06,0.25,3.22,0.00,23.28,24.74,27.57,5.95,30.17,1027.81,2047.99,2424.25,2506.16,2719.05,349.90,327.14,19.89,0000 0000 0000 0000 000000
2014-01-13 01:56:06,0.16,3.22,0.00,23.29,24.74,27.55,5.99,30.21,1027.82,2047.99,2424.09,2506.06,2719.01,350.35,327.54,19.89,0000 0000 0000 0000 000000
2014-01-13 01:57:07,0.06,3.22,0.00,23.29,24.75,27.55,6.13,30.21,1027.81,2047.99,2424.03,2506.01,2718.94,350.94,328.09,19.90,0000 0000 0000 0000 000000
2014-01-13 01:58:07,0.05,3.22,0.00,23.28,24.75,27.56,6.03,30.25,1027.82,2047.99,2423.92,2505.99,2718.71,350.62,327.96,19.91,0000 0000 0000 0000 000000
2014-01-13 01:59:07,0.09,3.22,0.00,23.29,24.75,27.55,5.88,30.00,1027.85,2047.99,2423.50,2505.86,2718.36,350.72,327.90,19.91,0000 0000 0000 0000 000000
2014-01-13 02:00:07,0.22,3.22,0.00,23.31,24.75,27.54,6.04,30.13,1027.85,2047.99,2423.19,2505.43,2718.14,349.26,326.51,19.92,0000 0000 0000 0000 000000
2014-01-13 02:01:07,0.23,3.22,0.00,23.32,24.75,27.52,5.92,29.96,1027.85,2047.99,2423.07,2505.16,2718.05,349.34,326.58,19.92,0000 0000 0000 0000 000000
2014-01-13 02:02:08,0.11,3.22,0.00,23.31,24.75,27.54,6.00,29.92,1027.85,2047.99,2422.99,2505.05,2717.98,349.63,326.86,19.93,0000 0000 0000 0000 000000
2014-01-13 02:03:08,0.06,3.22,0.00,23.31,24.75,27.53,6.12,30.17,1027.85,2047.99,2422.61,2505.02,2717.79,350.09,327.28,19.94,0000 0000 0000 0000 000000
2014-01-13 02:04:08,0.14,3.22,0.00,23.30,24.75,27.53,5.98,30.29,1027.85,2047.99,2422.24,2504.97,2717.36,348.63,325.93,19.94,0000 0000 0000 0000 000000
2014-01-13 02:05:08,0.17,3.22,0.00,23.29,24.75,27.54,5.99,30.00,1027.85,2047.98,2422.08,2504.71,2717.13,349.88,327.06,19.95,0000 0000 0000 0000 000000
2014-01-13 02:06:09,0.14,3.22,0.00,23.27,24.75,27.56,6.02,30.13,1027.85,2047.99,2422.02,2504.39,2717.05,350.52,327.73,19.95,0000 0000 0000 0000 000000
2014-01-13 02:07:09,0.14,3.23,0.00,23.29,24.75,27.55,5.90,30.00,1027.85,2047.99,2421.89,2504.18,2717.01,350.02,327.41,19.96,0000 0000 0000 0000 000000
2014-01-13 02:08:09,0.10,3.23,0.00,23.28,24.75,27.56,5.99,29.79,1027.85,2047.99,2421.43,2504.07,2716.88,349.71,327.40,19.97,0000 0000 0000 0000 000000
2014-01-13 02:09:09,0.17,3.23,0.00,23.27,24.75,27.59,6.11,30.00,1027.85,2047.99,2421.16,2504.01,2716.50,350.59,327.54,19.97,0000 0000 0000 0000 000000
2014-01-13 02:10:10,0.13,3.23,0.00,23.26,24.76,27.59,6.02,30.13,1027.85,2047.98,2421.05,2503.96,2716.19,350.67,327.63,19.98,0000 0000 0000 0000 000000
2014-01-13 02:11:10,0.09,3.23,0.00,23.26,24.76,27.59,5.87,29.88,1027.85,2047.98,2420.92,2503.68,2716.07,349.59,326.78,19.98,0000 0000 0000 0000 000000
2014-01-13 02:12:10,0.14,3.23,0.00,23.25,24.77,27.57,6.01,30.04,1027.85,2047.99,2420.47,2503.31,2716.02,349.73,327.24,19.99,0000 0000 0000 0000 000000
2014-01-13 02:13:10,0.23,3.23,0.00,23.27,24.77,27.56,6.04,30.13,1027.85,2047.99,2420.17,2503.11,2715.96,350.36,327.59,19.99,0000 0000 0000 0000 000000
2014-01-13 02:14:11,0.13,3.23,0.00,23.27,24.77,27.57,6.00,30.25,1027.85,2047.99,2420.06,2503.04,2715.72,349.34,326.62,20.00,0000 0000 0000 0000 000000
2014-01-13 02:15:11,0.09,3.23,0.00,23.28,24.77,27.59,6.05,29.75,1027.85,2047.98,2419.92,2502.97,2715.29,351.08,328.25,20.01,0000 0000 0000 0000 000000
2014-01-13 02:16:11,0.12,3.23,0.00,23.30,24.77,27.61,6.00,29.88,1027.85,2047.99,2419.50,2502.77,2715.10,350.50,327.69,20.01,0000 0000 0000 0000 000000
2014-01-13 02:17:11,0.19,3.23,0.00,23.29,24.77,27.60,6.01,30.08,1027.85,2047.98,2419.21,2502.36,2715.03,350.47,327.66,20.02,0000 0000 0000 0000 000000
2014-01-13 02:18:11,0.20,3.24,0.00,23.30,24.77,27.58,6.07,30.04,1027.85,2047.97,2419.08,2502.13,2714.98,350.03,327.24,20.02,0000 0000 0000 0000 000000
2014-01-13 02:19:12,0.09,3.24,0.00,23.30,24.77,27.58,6.04,29.71,1027.85,2047.98,2418.97,2502.05,2714.71,350.53,327.71,20.03,0000 0000 0000 0000 000000
2014-01-13 02:20:12,0.11,3.24,0.00,23.28,24.77,27.58,6.16,30.08,1027.85,2047.97,2418.56,2502.01,2714.30,350.30,327.51,20.04,0000 0000 0000 0000 000000
2014-01-13 02:21:12,0.16,3.24,0.00,23.27,24.77,27.61,6.08,30.25,1027.85,2047.99,2418.23,2501.98,2714.12,350.09,327.69,20.04,0000 0000 0000 0000 000000
2014-01-13 02:22:12,0.13,3.24,0.00,23.27,24.77,27.60,5.97,30.17,1027.85,2047.99,2418.08,2501.71,2714.04,349.27,326.57,20.05,0000 0000 0000 0000 000000
2014-01-13 02:23:13,0.13,3.24,0.00,23.29,24.77,27.61,6.01,30.17,1027.85,2047.99,2418.01,2501.35,2713.99,349.48,326.94,20.05,0000 0000 0000 0000 000000
2014-01-13 02:24:13,0.14,3.24,0.00,23.31,24.77,27.61,6.13,30.08,1027.85,2047.98,2417.68,2501.13,2713.78,349.95,326.94,20.06,0000 0000 0000 0000 000000
2014-01-13 02:25:13,0.16,3.24,0.00,23.32,24.77,27.61,5.97,30.17,1027.85,2047.99,2417.28,2501.05,2713.39,349.95,327.14,20.06,0000 0000 0000 0000 000000
2014-01-13 02:26:14,0.20,3.24,0.00,23.29,24.77,27.62,6.02,30.00,1027.85,2047.98,2417.10,2501.00,2713.15,350.64,327.83,20.07,0000 0000 0000 0000 000000
2014-01-13 02:27:14,0.09,3.24,0.00,23.31,24.77,27.61,5.90,30.04,1027.85,2047.97,2417.03,2500.83,2713.05,349.48,326.58,20.08,0000 0000 0000 0000 000000
2014-01-13 02:28:14,0.08,3.24,0.00,23.32,24.77,27.60,6.02,30.08,1027.85,2047.97,2416.96,2500.46,2712.99,350.17,327.78,20.08,0000 0000 0000 0000 000000
2014-01-13 02:29:14,0.17,3.24,0.00,23.33,24.77,27.59,6.11,30.00,1027.85,2047.99,2416.63,2500.20,2712.72,350.39,327.76,20.09,0000 0000 0000 0000 000000
2014-01-13 02:30:14,0.21,3.25,0.00,23.32,24.78,27.58,5.98,29.83,1027.86,2047.98,2416.24,2500.07,2712.30,349.62,326.84,20.09,0000 0000 0000 0000 000000
2014-01-13 02:31:15,0.21,3.25,0.00,23.29,24.78,27.60,5.99,29.96,1027.85,2047.99,2416.08,2500.02,2712.11,349.98,327.20,20.10,0000 0000 0000 0000 000000
2014-01-13 02:32:15,0.07,3.25,0.00,23.32,24.79,27.61,5.98,29.63,1027.86,2047.99,2416.02,2499.97,2712.02,350.72,328.22,20.11,0000 0000 0000 0000 000000
2014-01-13 02:33:15,0.05,3.25,0.00,23.32,24.79,27.59,6.04,30.00,1027.85,2047.99,2415.94,2499.77,2711.95,350.48,327.63,20.11,0000 0000 0000 0000 000000
2014-01-13 02:34:15,0.12,3.25,0.00,23.32,24.79,27.59,5.96,29.92,1027.86,2047.97,2415.50,2499.39,2711.58,349.55,326.78,20.12,0000 0000 0000 0000 000000
2014-01-13 02:35:16,0.22,3.25,0.00,23.33,24.80,27.58,6.17,29.96,1027.85,2047.96,2415.20,2499.15,2711.25,350.04,327.21,20.12,0000 0000 0000 0000 000000
2014-01-13 02:36:16,0.18,3.25,0.00,23.33,24.80,27.59,6.18,30.00,1027.86,2047.97,2415.08,2499.05,2711.09,350.08,327.26,20.13,0000 0000 0000 0000 000000